When you browse on this site, cookies collect data to enhance your experience and personalize the content and advertising you see.
Visit our Privacy Policy to learn more. By continuing to use the site, you agree to this use of cookies and data.
  • In Österreich
  • Länderverzeichnis
  • Für 7 Tage
  • Wassertemperatur
  • Satellitenkarten
  • Wetterkarte
  • News
  • Widgets
  • user-avatar
    Anmelden

    Stündliche Wetter Veresnica

    Heute, 22 Juli, Montag

    Zeit Temperatur Niederschläge Wind Luftdruck Luftfeuchtigkeit
    00:00 +19°C° 0.2 mm 2 m/S 751 mmHg 87%
    01:00 +20°C° 0.2 mm 1 m/S 750 mmHg 89%
    02:00 +19°C° 0.2 mm 1 m/S 750 mmHg 92%
    03:00 +18°C° 0.9 mm 2 m/S 750 mmHg 94%
    04:00 +18°C° 0.9 mm 2 m/S 750 mmHg 95%
    05:00 +18°C° 0.9 mm 2 m/S 750 mmHg 97%
    06:00 +18°C° 1.5 mm 3 m/S 750 mmHg 97%
    07:00 +18°C° 1.5 mm 4 m/S 750 mmHg 96%
    08:00 +17°C° 1.5 mm 5 m/S 750 mmHg 96%
    09:00 +18°C° 0.3 mm 4 m/S 750 mmHg 95%
    10:00 +19°C° 0.3 mm 4 m/S 751 mmHg 93%
    11:00 +19°C° 0.3 mm 3 m/S 751 mmHg 92%
    12:00 +20°C° 0.4 mm 4 m/S 751 mmHg 87%
    13:00 +21°C° 0.4 mm 4 m/S 751 mmHg 83%
    14:00 +23°C° 0.4 mm 5 m/S 751 mmHg 78%
    15:00 +23°C° 0.2 mm 4 m/S 751 mmHg 75%
    16:00 +23°C° 0.2 mm 4 m/S 751 mmHg 72%
    17:00 +25°C° 0.2 mm 4 m/S 751 mmHg 70%
    18:00 +22°C° 0.1 mm 4 m/S 751 mmHg 75%
    19:00 +20°C° 0.1 mm 3 m/S 750 mmHg 81%
    20:00 +19°C° 0.1 mm 3 m/S 750 mmHg 86%
    21:00 +18°C° 0 mm 3 m/S 750 mmHg 89%
    22:00 +17°C° 0 mm 3 m/S 750 mmHg 92%
    23:00 +16°C° 0 mm 3 m/S 751 mmHg 95%

    Morgen, 23 Juli, Dienstag

    Zeit Temperatur Niederschläge Wind Luftdruck Luftfeuchtigkeit
    00:00 +16°C° 0 mm 3 m/S 750 mmHg 95%
    01:00 +14°C° 0 mm 3 m/S 750 mmHg 95%
    02:00 +14°C° 0 mm 3 m/S 750 mmHg 96%
    03:00 +13°C° 0 mm 3 m/S 750 mmHg 96%
    04:00 +13°C° 0 mm 3 m/S 750 mmHg 96%
    05:00 +13°C° 0 mm 3 m/S 750 mmHg 97%
    06:00 +13°C° 0 mm 3 m/S 750 mmHg 94%
    07:00 +14°C° 0 mm 3 m/S 750 mmHg 92%
    08:00 +14°C° 0 mm 3 m/S 750 mmHg 89%
    09:00 +15°C° 0 mm 4 m/S 750 mmHg 87%
    10:00 +17°C° 0 mm 4 m/S 750 mmHg 85%
    11:00 +16°C° 0 mm 5 m/S 750 mmHg 84%
    12:00 +17°C° 0.3 mm 4 m/S 750 mmHg 85%
    13:00 +18°C° 0.3 mm 4 m/S 750 mmHg 87%
    14:00 +18°C° 0.3 mm 4 m/S 749 mmHg 89%
    15:00 +18°C° 0.4 mm 4 m/S 750 mmHg 88%
    16:00 +19°C° 0.4 mm 4 m/S 750 mmHg 87%
    17:00 +20°C° 0.4 mm 4 m/S 750 mmHg 86%
    18:00 +19°C° 0.4 mm 3 m/S 749 mmHg 88%
    19:00 +18°C° 0.4 mm 3 m/S 749 mmHg 90%
    20:00 +18°C° 0.4 mm 3 m/S 749 mmHg 92%
    21:00 +17°C° 0 mm 3 m/S 749 mmHg 93%
    22:00 +17°C° 0 mm 3 m/S 749 mmHg 94%
    23:00 +16°C° 0 mm 3 m/S 750 mmHg 95%

    übermorgen, 24 Juli, Mittwoch

    Zeit Temperatur Niederschläge Wind Luftdruck Luftfeuchtigkeit
    00:00 +16°C° 0 mm 3 m/S 749 mmHg 95%
    01:00 +16°C° 0 mm 3 m/S 749 mmHg 96%
    02:00 +14°C° 0 mm 3 m/S 749 mmHg 96%
    03:00 +14°C° 0 mm 3 m/S 749 mmHg 97%
    04:00 +14°C° 0 mm 3 m/S 749 mmHg 97%
    05:00 +14°C° 0 mm 3 m/S 750 mmHg 97%
    06:00 +16°C° 0 mm 3 m/S 750 mmHg 94%
    07:00 +18°C° 0 mm 3 m/S 750 mmHg 90%
    08:00 +19°C° 0 mm 3 m/S 750 mmHg 86%
    09:00 +21°C° 0 mm 3 m/S 750 mmHg 78%
    10:00 +22°C° 0 mm 4 m/S 750 mmHg 71%
    11:00 +25°C° 0 mm 4 m/S 750 mmHg 63%
    12:00 +25°C° 0 mm 5 m/S 750 mmHg 59%
    13:00 +26°C° 0 mm 5 m/S 750 mmHg 56%
    14:00 +27°C° 0 mm 5 m/S 750 mmHg 53%
    15:00 +26°C° 0 mm 5 m/S 750 mmHg 56%
    16:00 +26°C° 0 mm 5 m/S 750 mmHg 58%
    17:00 +26°C° 0 mm 4 m/S 750 mmHg 60%
    18:00 +23°C° 0 mm 4 m/S 750 mmHg 67%
    19:00 +21°C° 0 mm 3 m/S 750 mmHg 73%
    20:00 +20°C° 0 mm 3 m/S 750 mmHg 80%
    21:00 +19°C° 0 mm 3 m/S 751 mmHg 82%
    22:00 +18°C° 0 mm 3 m/S 751 mmHg 84%
    23:00 +17°C° 0 mm 2 m/S 751 mmHg 86%

    25 Juli, Donnerstag

    Zeit Temperatur Niederschläge Wind Luftdruck Luftfeuchtigkeit
    00:00 +16°C° 0 mm 3 m/S 751 mmHg 85%
    01:00 +16°C° 0 mm 3 m/S 751 mmHg 85%
    02:00 +16°C° 0 mm 3 m/S 751 mmHg 84%
    03:00 +16°C° 0 mm 3 m/S 751 mmHg 85%
    04:00 +16°C° 0 mm 3 m/S 751 mmHg 85%
    05:00 +16°C° 0 mm 3 m/S 751 mmHg 85%
    06:00 +18°C° 0 mm 4 m/S 751 mmHg 79%
    07:00 +19°C° 0 mm 4 m/S 751 mmHg 74%
    08:00 +21°C° 0 mm 5 m/S 751 mmHg 68%
    09:00 +22°C° 0 mm 5 m/S 752 mmHg 65%
    10:00 +23°C° 0 mm 5 m/S 752 mmHg 61%
    11:00 +25°C° 0 mm 5 m/S 752 mmHg 57%
    12:00 +25°C° 0.2 mm 5 m/S 752 mmHg 63%
    13:00 +23°C° 0.2 mm 4 m/S 752 mmHg 69%
    14:00 +23°C° 0.2 mm 4 m/S 751 mmHg 76%
    15:00 +23°C° 0.2 mm 4 m/S 751 mmHg 78%
    16:00 +23°C° 0.2 mm 4 m/S 751 mmHg 80%
    17:00 +22°C° 0.2 mm 4 m/S 751 mmHg 82%
    18:00 +22°C° 0.1 mm 4 m/S 751 mmHg 85%
    19:00 +21°C° 0.1 mm 4 m/S 752 mmHg 87%
    20:00 +20°C° 0.1 mm 3 m/S 752 mmHg 90%
    21:00 +20°C° 0 mm 3 m/S 752 mmHg 92%
    22:00 +19°C° 0 mm 3 m/S 752 mmHg 93%
    23:00 +19°C° 0 mm 3 m/S 752 mmHg 94%

    26 Juli, Freitag

    Zeit Temperatur Niederschläge Wind Luftdruck Luftfeuchtigkeit
    00:00 +18°C° 0 mm 3 m/S 752 mmHg 95%
    01:00 +18°C° 0 mm 2 m/S 753 mmHg 96%
    02:00 +17°C° 0 mm 2 m/S 753 mmHg 97%
    03:00 +17°C° 0 mm 2 m/S 753 mmHg 97%
    04:00 +17°C° 0 mm 2 m/S 753 mmHg 97%
    05:00 +17°C° 0 mm 2 m/S 753 mmHg 97%
    06:00 +18°C° 0 mm 3 m/S 753 mmHg 90%
    07:00 +20°C° 0 mm 3 m/S 753 mmHg 83%
    08:00 +21°C° 0 mm 3 m/S 753 mmHg 76%
    09:00 +23°C° 0 mm 4 m/S 753 mmHg 68%
    10:00 +26°C° 0 mm 4 m/S 753 mmHg 60%
    11:00 +27°C° 0 mm 4 m/S 753 mmHg 53%
    12:00 +28°C° 0 mm 4 m/S 752 mmHg 53%
    13:00 +28°C° 0 mm 4 m/S 752 mmHg 53%
    14:00 +29°C° 0 mm 3 m/S 752 mmHg 53%
    15:00 +28°C° 0.2 mm 3 m/S 752 mmHg 57%
    16:00 +28°C° 0.2 mm 3 m/S 751 mmHg 61%
    17:00 +28°C° 0.2 mm 3 m/S 751 mmHg 65%
    18:00 +26°C° 0.1 mm 3 m/S 751 mmHg 70%
    19:00 +24°C° 0.1 mm 2 m/S 751 mmHg 74%
    20:00 +21°C° 0.1 mm 2 m/S 751 mmHg 79%
    21:00 +21°C° 0 mm 1 m/S 751 mmHg 82%
    22:00 +21°C° 0 mm 1 m/S 751 mmHg 85%
    23:00 +20°C° 0 mm 1 m/S 752 mmHg 88%

    27 Juli, Samstag

    Zeit Temperatur Niederschläge Wind Luftdruck Luftfeuchtigkeit
    00:00 +19°C° 0 mm 1 m/S 751 mmHg 90%
    01:00 +19°C° 0 mm 1 m/S 751 mmHg 92%
    02:00 +19°C° 0 mm 1 m/S 751 mmHg 93%
    03:00 +18°C° 0 mm 1 m/S 751 mmHg 94%
    04:00 +18°C° 0 mm 1 m/S 751 mmHg 94%
    05:00 +18°C° 0 mm 1 m/S 751 mmHg 95%
    06:00 +20°C° 0 mm 1 m/S 751 mmHg 88%
    07:00 +22°C° 0 mm 1 m/S 751 mmHg 82%
    08:00 +23°C° 0 mm 2 m/S 751 mmHg 75%
    09:00 +25°C° 0 mm 2 m/S 751 mmHg 69%
    10:00 +26°C° 0 mm 2 m/S 751 mmHg 62%
    11:00 +28°C° 0 mm 2 m/S 751 mmHg 56%
    12:00 +28°C° 0 mm 2 m/S 750 mmHg 56%
    13:00 +28°C° 0 mm 2 m/S 750 mmHg 55%
    14:00 +28°C° 0 mm 2 m/S 750 mmHg 55%
    15:00 +28°C° 0 mm 2 m/S 749 mmHg 56%
    16:00 +28°C° 0 mm 2 m/S 749 mmHg 58%
    17:00 +28°C° 0 mm 2 m/S 749 mmHg 59%
    18:00 +26°C° 0 mm 2 m/S 749 mmHg 66%
    19:00 +25°C° 0 mm 2 m/S 749 mmHg 73%
    20:00 +23°C° 0 mm 1 m/S 749 mmHg 80%
    21:00 +22°C° 0 mm 1 m/S 749 mmHg 80%
    22:00 +21°C° 0 mm 1 m/S 749 mmHg 80%
    23:00 +20°C° 0 mm 1 m/S 749 mmHg 81%
    Mehr zeigen